TimeAKDT,TemperatureF,Dew PointF,Humidity,Sea Level PressureIn,VisibilityMPH,Wind Direction,Wind SpeedMPH,Gust SpeedMPH,PrecipitationIn,Events,Conditions,WindDirDegrees,DateUTC
12:53 AM,54.0,30.9,41,29.66,10.0,Calm,Calm,-,N/A,,Mostly Cloudy,0,2012-05-21 08:53:00
1:53 AM,52.0,30.9,45,29.66,10.0,Calm,Calm,-,N/A,,Mostly Cloudy,0,2012-05-21 09:53:00
2:53 AM,45.0,37.9,76,29.66,10.0,Calm,Calm,-,N/A,,Scattered Clouds,0,2012-05-21 10:53:00
3:53 AM,44.1,36.0,73,29.66,10.0,ENE,3.5,-,N/A,,Scattered Clouds,70,2012-05-21 11:53:00
4:53 AM,43.0,32.0,65,29.66,10.0,ENE,8.1,-,N/A,,Scattered Clouds,60,2012-05-21 12:53:00
5:53 AM,46.0,34.0,63,29.67,10.0,NE,5.8,-,N/A,,Mostly Cloudy,50,2012-05-21 13:53:00
6:53 AM,48.0,33.1,56,29.66,10.0,NE,4.6,-,N/A,,Mostly Cloudy,50,2012-05-21 14:53:00
7:53 AM,51.1,30.9,46,29.66,10.0,ENE,5.8,-,N/A,,Scattered Clouds,70,2012-05-21 15:53:00
8:53 AM,54.0,32.0,43,29.66,10.0,Calm,Calm,-,N/A,,Scattered Clouds,0,2012-05-21 16:53:00
9:53 AM,57.9,30.0,35,29.65,10.0,Calm,Calm,-,N/A,,Mostly Cloudy,0,2012-05-21 17:53:00
10:53 AM,61.0,28.0,29,29.64,10.0,NE,4.6,-,N/A,,Mostly Cloudy,50,2012-05-21 18:53:00
11:53 AM,64.0,28.0,26,29.62,10.0,ESE,4.6,-,N/A,,Mostly Cloudy,110,2012-05-21 19:53:00
12:53 PM,66.0,27.0,23,29.60,10.0,Variable,4.6,-,N/A,,Scattered Clouds,0,2012-05-21 20:53:00
1:53 PM,68.0,26.1,21,29.59,10.0,NE,8.1,-,N/A,,Mostly Cloudy,50,2012-05-21 21:53:00
2:53 PM,69.1,25.0,19,29.57,10.0,East,5.8,-,N/A,,Mostly Cloudy,100,2012-05-21 22:53:00
3:53 PM,68.0,25.0,20,29.56,10.0,ESE,4.6,-,N/A,,Mostly Cloudy,120,2012-05-21 23:53:00
4:53 PM,69.1,24.1,18,29.55,10.0,Variable,3.5,-,N/A,,Mostly Cloudy,0,2012-05-22 00:53:00
5:53 PM,68.0,25.0,20,29.55,10.0,ESE,8.1,-,N/A,,Mostly Cloudy,110,2012-05-22 01:53:00
6:53 PM,69.1,28.9,22,29.54,10.0,East,12.7,20.7,N/A,,Mostly Cloudy,90,2012-05-22 02:53:00
7:53 PM,66.0,30.9,27,29.55,10.0,ESE,12.7,-,N/A,,Mostly Cloudy,120,2012-05-22 03:53:00
8:53 PM,64.9,32.0,29,29.55,10.0,East,6.9,-,N/A,,Mostly Cloudy,80,2012-05-22 04:53:00
9:53 PM,63.0,35.1,35,29.57,10.0,East,4.6,-,N/A,,Mostly Cloudy,90,2012-05-22 05:53:00
10:53 PM,62.1,33.1,34,29.57,10.0,ENE,9.2,-,0.00,,Mostly Cloudy,60,2012-05-22 06:53:00
11:53 PM,55.9,37.9,51,29.57,10.0,NNE,8.1,-,N/A,,Mostly Cloudy,30,2012-05-22 07:53:00